Brookings, OR

6:32 AM PDT on September 21, 2017 (GMT -0700)
Brookings State

Weather History for KBOK - May, 2014

Change the Weather History Date:

Friday, May 16, 2014

  Actual Average Record
Temperature  
Mean Temperature 56 °F -  
Max Temperature 63 °F 63 °F 86 °F (2008)
Min Temperature 50 °F 45 °F 40 °F (1943)
Degree Days  
Heating Degree Days 8    
Growing Degree Days 6 (Base 50)    
Moisture  
Dew Point 51 °F    
Average Humidity 82    
Maximum Humidity 94    
Minimum Humidity 60    
Precipitation  
Precipitation 0.00 in - - ()
Sea Level Pressure  
Sea Level Pressure 30.15 in    
Wind  
Wind Speed 4 mph (NNW)    
Max Wind Speed 15 mph    
Max Gust Speed 16 mph    
Visibility 7 miles    
Events Rain    
Averages and records for this station are not official NWS values.
T = Trace of Precipitation, MM = Missing Value Source: NWS Daily Summary

Daily Weather History Graph

Daily Weather History Graph

Search for Another Location

Airport or City:

Trip Planner

Search our weather history database for the weather conditions in past years. The results will help you decide how hot, cold, wet, or windy it might be!

Date:

Astronomy

May. 16, 2014 Rise Set
Actual Time 5:55 AM PDT 8:32 PM PDT
Civil Twilight 5:23 AM PDT 9:04 PM PDT
Nautical Twilight 4:43 AM PDT 9:44 PM PDT
Astronomical Twilight 3:57 AM PDT 10:30 PM PDT
Moon 10:44 PM PDT (5/16) 7:42 AM PDT (5/16)
Length of Visible Light 15h 40m
Length of Day
14h 36m
Waning Gibbous, 95% of the Moon is Illuminated
May 16
Waning Gibbous
May 21
Last Quarter
May 28
New
Jun 5
First Quarter
Jun 12
Full

Hourly Weather History & Observations

Time (PDT) Temp. Dew Point Humidity Pressure Visibility Wind Dir Wind Speed Gust Speed Precip Events Conditions
12:56 AM 52.9 °F 50.9 °F 93% 30.19 in 8.0 mi ENE 3.5 mph - N/A   Overcast
1:17 AM 51.8 °F 50.0 °F 94% 30.18 in 7.0 mi ENE 3.5 mph - N/A   Scattered Clouds
1:56 AM 50.9 °F 48.9 °F 93% 30.18 in 7.0 mi Calm Calm - N/A   Clear
2:56 AM 50.9 °F 48.9 °F 93% 30.16 in 8.0 mi Variable 3.5 mph - 0.00 in Rain Light Rain
3:56 AM 52.0 °F 48.9 °F 89% 30.16 in 8.0 mi Variable 5.8 mph - 0.00 in   Clear
4:56 AM 50.0 °F 47.8 °F 92% 30.17 in 8.0 mi Calm Calm - 0.00 in   Clear
5:56 AM 50.0 °F 47.8 °F 92% 30.17 in 8.0 mi Calm Calm - 0.00 in   Mostly Cloudy
6:56 AM 50.9 °F 48.9 °F 93% 30.18 in 7.0 mi Calm Calm - N/A   Mostly Cloudy
7:37 AM 53.6 °F 50.0 °F 88% 30.17 in 7.0 mi Calm Calm - 0.00 in   Scattered Clouds
7:56 AM 54.0 °F 48.9 °F 83% 30.18 in 8.0 mi ESE 3.5 mph - 0.00 in   Clear
8:56 AM 57.9 °F 50.9 °F 77% 30.19 in 7.0 mi WNW 5.8 mph - N/A   Clear
9:56 AM 59.9 °F 50.9 °F 72% 30.18 in 6.0 mi West 6.9 mph - N/A   Haze
10:35 AM 59.0 °F 51.8 °F 77% 30.19 in 7.0 mi Variable 5.8 mph - N/A   Mostly Cloudy
10:45 AM 59.0 °F 51.8 °F 77% 30.19 in 7.0 mi Variable 6.9 mph - N/A   Scattered Clouds
10:56 AM 59.0 °F 52.0 °F 78% 30.19 in 6.0 mi WNW 6.9 mph - N/A   Haze
11:56 AM 59.9 °F 52.0 °F 75% 30.18 in 7.0 mi Variable 5.8 mph - N/A   Clear
1:56 PM 61.9 °F 54.0 °F 75% 30.16 in 7.0 mi West 8.1 mph - N/A   Clear
2:56 PM 63.0 °F 52.9 °F 70% 30.16 in 7.0 mi NW 15.0 mph - N/A   Clear
3:56 PM 63.0 °F 52.0 °F 67% 30.14 in 7.0 mi NW 12.7 mph 16.1 mph N/A   Clear
4:56 PM 63.9 °F 50.9 °F 63% 30.13 in 8.0 mi NW 15.0 mph - N/A   Clear
5:56 PM 63.0 °F 48.9 °F 60% 30.12 in 7.0 mi NW 11.5 mph - N/A   Clear
6:56 PM 61.9 °F 50.9 °F 67% 30.10 in 7.0 mi NW 10.4 mph - N/A   Clear
7:56 PM 59.0 °F 50.9 °F 74% 30.10 in 7.0 mi NW 6.9 mph - N/A   Clear
8:56 PM 55.9 °F 50.9 °F 83% 30.10 in 8.0 mi Variable 3.5 mph - N/A   Clear
9:56 PM 54.0 °F 50.9 °F 89% 30.11 in 8.0 mi NNE 3.5 mph - N/A   Clear
10:56 PM 52.9 °F 50.9 °F 93% 30.12 in 7.0 mi Calm Calm - N/A   Partly Cloudy
11:06 PM 53.6 °F 51.8 °F 94% 30.11 in 7.0 mi Calm Calm - N/A   Mostly Cloudy
11:20 PM 53.6 °F 51.8 °F 94% 30.11 in 8.0 mi Calm Calm - N/A   Scattered Clouds
11:56 PM 52.9 °F 50.9 °F 93% 30.12 in 7.0 mi East 3.5 mph - N/A   Scattered Clouds